Date String (YYYY-MM-DD hh:mm:ss) UTC,Instrument flags,absolute air pressure of the measurement (hPa),sample flow rate (lpm),inlet stack bypass flow (lpm),air temperature of the measurement (°C),ambient temperature measured by the external sensor (°C),aerosol sample conditioner tube jacket temperature (°C),OPC LED temperature (°C),internal box temperature (°C),relative humidity of the measurement (%),span deviation,mass concentration of particles derived from Lorenz-Mie calculation of OPC scattering (μg/m³),mass concentration of particles derived from Lorenz-Mie calculation of OPC scattering (μg/m³),mass concentration of particles derived from Lorenz-Mie calculation of OPC scattering (μg/m³)
DateTimeUTC,F1_M11,P_M11,Q1_M11,Q2_M11,T1_M11,T2_M11,T3_M11,T4_M11,T5_M11,U1_M11,ZSPAN_M11,X0_M11,X2_M11,X1_M11
2024-04-12 08:00:00,SystemResetWarning,0829.6,5.00,000.00,024.4,023.6,000.0,033.0,026.2,009.1,0000.0,0012.74,0005.09,0002.53
2024-04-12 08:01:00,SystemResetWarning,0829.6,5.00,000.00,024.4,023.6,000.0,032.9,026.2,008.9,0000.0,0012.93,0005.09,0002.52
2024-04-12 08:02:00,SystemResetWarning,0829.6,4.99,000.00,024.4,023.6,000.0,032.9,026.2,008.9,0000.0,0012.98,0005.13,0002.55
2024-04-12 08:03:00,SystemResetWarning,0829.6,4.99,000.00,024.4,023.6,000.0,032.9,026.2,009.0,0000.0,0012.86,0005.11,0002.56
2024-04-12 08:04:00,SystemResetWarning,0829.5,5.00,000.00,024.4,023.6,000.0,032.9,026.2,008.9,0000.0,0012.87,0005.11,0002.52
2024-04-12 08:05:00,SystemResetWarning,0829.5,5.01,000.00,024.4,023.6,000.0,032.9,026.2,009.0,0000.0,0013.12,0005.08,0002.52
2024-04-12 08:06:00,SystemResetWarning,0829.5,5.01,000.00,024.4,023.6,000.0,032.9,026.2,009.1,0000.0,0013.08,0005.07,0002.52
2024-04-12 08:07:00,SystemResetWarning,0829.5,5.00,000.00,024.4,023.6,000.0,032.9,026.2,009.3,0000.0,0013.13,0005.09,0002.50
2024-04-12 08:08:00,SystemResetWarning,0829.5,5.00,000.00,024.4,023.6,000.0,032.9,026.2,009.4,0000.0,0013.26,0005.13,0002.50
2024-04-12 08:09:00,SystemResetWarning,0829.5,5.00,000.00,024.4,023.6,000.0,032.9,026.2,009.1,0000.0,0013.20,0005.12,0002.50
2024-04-12 08:10:00,SystemResetWarning,0829.5,5.00,000.00,024.4,023.6,000.0,032.9,026.2,009.0,0000.0,0012.86,0005.04,0002.48
2024-04-12 08:11:00,SystemResetWarning,0829.6,5.00,000.00,024.3,023.6,000.0,032.9,026.2,009.1,0000.0,0012.71,0005.07,0002.50
2024-04-12 08:12:00,SystemResetWarning,0829.5,5.00,000.00,024.3,023.6,000.0,032.9,026.2,009.1,0000.0,0012.11,0005.06,0002.50
2024-04-12 08:13:00,SystemResetWarning,0829.5,4.99,000.00,024.3,023.6,000.0,032.9,026.2,009.1,0000.0,0012.31,0005.02,0002.48
2024-04-12 08:14:00,SystemResetWarning,0829.5,5.00,000.00,024.3,023.6,000.0,032.9,026.2,009.1,0000.0,0012.25,0005.00,0002.45
2024-04-12 08:15:00,SystemResetWarning,0829.5,5.00,000.00,024.3,023.6,000.0,032.9,026.2,009.1,0000.0,0012.28,0005.00,0002.46
2024-04-12 08:16:00,SystemResetWarning,0829.4,5.01,000.00,024.3,023.6,000.0,032.8,026.1,009.1,0000.0,0012.28,0005.02,0002.47
2024-04-12 08:17:00,SystemResetWarning,0829.4,5.01,000.00,024.3,023.6,000.0,032.8,026.2,009.1,0000.0,0013.10,0004.99,0002.46
2024-04-12 08:18:00,SystemResetWarning,0829.4,5.00,000.00,024.3,023.6,000.0,032.8,026.2,009.1,0000.0,0013.52,0004.99,0002.47
2024-04-12 08:19:00,SystemResetWarning,0829.3,4.99,000.00,024.3,023.6,000.0,032.8,026.2,009.1,0000.0,0013.40,0004.95,0002.46
2024-04-12 08:20:00,SystemResetWarning,0829.3,5.00,000.00,024.3,023.6,000.0,032.8,026.2,009.0,0000.0,0013.22,0004.88,0002.46
2024-04-12 08:21:00,SystemResetWarning,0829.3,5.00,000.00,024.3,023.6,000.0,032.8,026.2,009.0,0000.0,0013.41,0004.90,0002.45
2024-04-12 08:22:00,SystemResetWarning,0829.3,4.99,000.00,024.3,023.6,000.0,032.8,026.2,009.0,0000.0,0013.23,0004.84,0002.44
2024-04-12 08:23:00,SystemResetWarning,0829.3,4.99,000.00,024.3,023.6,000.0,032.8,026.1,009.0,0000.0,0013.28,0004.84,0002.43
2024-04-12 08:24:00,SystemResetWarning,0829.4,5.00,000.00,024.3,023.6,000.0,032.8,026.1,009.1,0000.0,0012.99,0004.84,0002.45
2024-04-12 08:25:00,SystemResetWarning,0829.4,5.01,000.00,024.3,023.5,000.0,032.8,026.2,009.1,0000.0,0013.26,0004.84,0002.48
2024-04-12 08:26:00,SystemResetWarning,0829.3,5.00,000.00,024.3,023.5,000.0,032.8,026.2,009.1,0000.0,0014.02,0004.80,0002.51
2024-04-12 08:27:00,SystemResetWarning,0829.3,5.00,000.00,024.3,023.5,000.0,032.8,026.1,009.1,0000.0,0014.00,0004.81,0002.51
2024-04-12 08:28:00,SystemResetWarning,0829.3,5.00,000.00,024.3,023.5,000.0,032.8,026.1,009.1,0000.0,0013.70,0004.85,0002.51
2024-04-12 08:29:00,SystemResetWarning,0829.3,5.01,000.00,024.3,023.5,000.0,032.8,026.1,009.2,0000.0,0013.31,0004.85,0002.52
2024-04-12 08:30:00,SystemResetWarning,0829.3,5.00,000.00,024.3,023.5,000.0,032.8,026.1,009.2,0000.0,0013.43,0004.86,0002.54
2024-04-12 08:31:00,SystemResetWarning,0829.4,5.00,000.00,024.3,023.5,000.0,032.8,026.1,009.1,0000.0,0013.54,0004.84,0002.55
2024-04-12 08:32:00,SystemResetWarning,0829.4,5.00,000.00,024.3,023.5,000.0,032.8,026.1,009.3,0000.0,0013.47,0004.87,0002.57
2024-04-12 08:33:00,SystemResetWarning,0829.4,5.00,000.00,024.3,023.5,000.0,032.8,026.2,009.4,0000.0,0013.66,0004.94,0002.58
2024-04-12 08:34:00,SystemResetWarning,0829.5,4.99,000.00,024.3,023.5,000.0,032.8,026.2,009.5,0000.0,0013.57,0004.94,0002.60
2024-04-12 08:35:00,SystemResetWarning,0829.4,4.99,000.00,024.3,023.6,000.0,032.8,026.1,009.5,0000.0,0013.62,0004.95,0002.57
2024-04-12 08:36:00,SystemResetWarning,0829.4,4.99,000.00,024.3,023.6,000.0,032.8,026.1,009.5,0000.0,0013.69,0004.99,0002.57
2024-04-12 08:37:00,SystemResetWarning,0829.4,5.01,000.00,024.3,023.6,000.0,032.8,026.2,009.6,0000.0,0012.66,0005.00,0002.53
2024-04-12 08:38:00,SystemResetWarning,0829.4,5.01,000.00,024.3,023.6,000.0,032.8,026.2,009.5,0000.0,0012.60,0005.03,0002.54
2024-04-12 08:39:00,SystemResetWarning,0829.4,5.00,000.00,024.3,023.6,000.0,032.8,026.2,009.4,0000.0,0012.60,0005.00,0002.57
2024-04-12 08:40:00,SystemResetWarning,0829.4,4.99,000.00,024.3,023.6,000.0,032.8,026.2,009.6,0000.0,0012.47,0005.00,0002.55
2024-04-12 08:41:00,SystemResetWarning,0829.4,4.99,000.00,024.3,023.6,000.0,032.8,026.2,009.5,0000.0,0012.79,0005.07,0002.53
2024-04-12 08:42:00,SystemResetWarning,0829.4,5.01,000.00,024.3,023.6,000.0,032.8,026.2,009.5,0000.0,0013.02,0005.12,0002.55
2024-04-12 08:43:00,SystemResetWarning,0829.4,5.01,000.00,024.3,023.6,000.0,032.8,026.2,009.6,0000.0,0013.39,0005.16,0002.55
2024-04-12 08:44:00,SystemResetWarning,0829.4,5.00,000.00,024.3,023.6,000.0,032.8,026.2,009.6,0000.0,0013.18,0005.08,0002.55
2024-04-12 08:45:00,SystemResetWarning,0829.4,4.98,000.00,024.3,023.6,000.0,032.8,026.2,009.7,0000.0,0013.46,0005.14,0002.55
2024-04-12 08:46:00,SystemResetWarning,0829.3,5.00,000.00,024.3,023.6,000.0,032.8,026.2,009.7,0000.0,0014.24,0005.14,0002.57
2024-04-12 08:47:00,SystemResetWarning,0829.4,5.01,000.00,024.3,023.6,000.0,032.8,026.2,009.6,0000.0,0014.98,0005.18,0002.59
2024-04-12 08:48:00,SystemResetWarning,0829.3,5.01,000.00,024.3,023.6,000.0,032.8,026.2,009.6,0000.0,0015.35,0005.20,0002.61
2024-04-12 08:49:00,SystemResetWarning,0829.4,5.00,000.00,024.3,023.6,000.0,032.8,026.2,009.6,0000.0,0015.11,0005.14,0002.60
2024-04-12 08:50:00,SystemResetWarning,0829.3,5.00,000.00,024.3,023.6,000.0,032.8,026.2,009.6,0000.0,0014.51,0005.05,0002.55
2024-04-12 08:51:00,SystemResetWarning,0829.3,5.00,000.00,024.3,023.7,000.0,032.8,026.2,009.6,0000.0,0014.16,0005.01,0002.56
2024-04-12 08:52:00,SystemResetWarning,0829.4,5.00,000.00,024.3,023.6,000.0,032.8,026.2,009.7,0000.0,0013.97,0004.97,0002.59
2024-04-12 08:53:00,SystemResetWarning,0829.4,4.99,000.00,024.3,023.6,000.0,032.8,026.2,010.2,0000.0,0013.81,0004.97,0002.57
2024-04-12 08:54:00,SystemResetWarning,0829.5,5.00,000.00,024.3,023.6,000.0,032.8,026.2,010.1,0000.0,0013.35,0004.92,0002.56
2024-04-12 08:55:00,SystemResetWarning,0829.4,5.00,000.00,024.3,023.6,000.0,032.8,026.2,010.0,0000.0,0013.40,0004.91,0002.55
2024-04-12 08:56:00,SystemResetWarning,0829.4,5.01,000.00,024.3,023.6,000.0,032.8,026.2,009.7,0000.0,0014.55,0004.84,0002.53
2024-04-12 08:57:00,SystemResetWarning,0829.4,5.00,000.00,024.3,023.6,000.0,032.8,026.2,009.7,0000.0,0014.31,0004.87,0002.51
2024-04-12 08:58:00,SystemResetWarning,0829.4,5.00,000.00,024.3,023.6,000.0,032.8,026.2,009.7,0000.0,0013.98,0004.85,0002.51
2024-04-12 08:59:00,SystemResetWarning,0829.4,5.00,000.00,024.3,023.7,000.0,032.8,026.2,010.0,0000.0,0014.27,0004.83,0002.51
